COSMOS 516

Satellite information

Favourite Embed

Satellite Type and Status

PAYLOADIN ORBIT

Key statistics

Satellite COSMOS 516 at a glance.

Uptime

19473

Days in orbit

Revolutions

≈ 13.8

Per day

Orbit

LEO

Low Earth Orbit

Inclination

64.8

Latest

Satellite identification and parameters

Extended collection of information and parameters for COSMOS 516.

Object identification

Identified? True

Debris? False

Object name: COSMOS 516

International designator: 1972-066A

Object number (NORAD): 6154

Object ID (CCSDS): 6154

Country: COMMONWEALTH OF INDEPENDENT STATES (CIS)

Current information (Y/N): Y

RCS size: LARGE

Orbital parameters

Period: 104.514 minutes

Inclination: 64.8116 deg

SMA: 7349.829 km

Apoapsis: 1018.644 km

Periapsis: 924.744 km

RAAN: 309.9704 deg

Eccentricy: 0.0063879

Argument of periapsis: 163.0254 deg

Mean anomaly: 197.2959 deg

Mean motion: 13.77802176 rev/day

Mean motion (dot): -0.00000046 rev/day2

B* drag term: 0.000042006264 1/REarth

Two-line elements (TLE)

Creation date: Dec. 13, 2025, 5:47 p.m.

Reference frame: TEME

Reference center: EARTH

Epoch: Dec. 13, 2025, 7:36 a.m. UTC

TLE line 0: 0 COSMOS 516

TLE line 1: 1 06154U 72066A 25347.31688128 -.00000046 00000-0 42006-4 0 9992

TLE line 2: 2 06154 64.8116 309.9704 0063879 163.0254 197.2959 13.77802176682314

Live tracking on map

Real-time ground track for satellite COSMOS 516.

In-orbit conjunctions

A list of the most updated potential collisions computed for object COSMOS 516.

Target Orbit TCA Probability of collision Miss distance Type
COSMOS 1275 DEB LEO 2025-09-06 21:36:23 0.000196904 400.0 (m) DEBRIS
FENGYUN 1C DEB SSO 2024-10-20 19:03:56 0.0006898954 172.0 (m) DEBRIS
FENGYUN 1C DEB SSO 2024-10-04 14:35:23 0.0001553324 612.0 (m) DEBRIS

Associated space launch

Active radar satellite for ocean surveillance powered by a nuclear reactor.

COSMOS 516 was lifted into orbit during the mission ‘Tsiklon-2 | US-A 4’, on board a Tsiklon-2 space rocket.

The launch took place on Aug. 21, 1972, 10:36 a.m. from 90/19.

For more information about the launch, click the button.

Launch to space Tsiklon-2 | US-A 4
Tsiklon-2 | US-A 4

Agency: N/A

Status: Launch Successful

Launch date: Aug. 21, 1972, 10:36 a.m. UTC

Rocket: Tsiklon-2

Launch pad: 90/19

Location: Baikonur Cosmodrome, Republic of Kazakhstan

...

Latest news about this satellite

There are no fresh news available about this satellite. Check back as we update our databases every day.


Newsletter sign-up

Weekly statistics, charts and insights to help you stay on top of the space industry.